[[{"header":{"parameterUnit":"m.s-1","parameterCategory":1,"la1":30.2991,"la2":30.254,"lo1":-89.0895,"lo2":-89.0444,"dy":0.0017,"dx":0.0017,"nx":28,"ny":28,"refTime":"2025-04-25T03:00:00:Z","depth":0,"parameterNumber":2,"parameterNumberName":"U-component_of_WINDS"},"data":[0,0,0,0,0,0,0,0,0,0,0,0,0,0,0,0,0,0,0,0,0,0,0,0,0,0,0,0,0,0,0,0,0,0,0,0,0,0,0,0,0,0,0,0,0,0,0,0,0,0,0,0,0,0,0,0,0,0,-3.1981,-3.1983,0,-3.2207,-3.2209,-3.2212,-3.226,-3.2258,-3.2257,-3.2255,-3.2489,-3.2497,-3.2505,0,0,0,0,0,0,0,0,0,0,0,0,0,-3.1595,-3.1602,-3.198,-3.1983,-3.1986,-3.2206,-3.2209,-3.2212,-3.226,-3.2258,-3.2256,-3.2254,-3.2487,-3.2496,-3.2505,0,0,0,0,0,0,0,0,0,0,0,0,0,-3.1786,-3.1604,-3.198,-3.2036,-3.2044,-3.2206,-3.2209,-3.2213,-3.2261,-3.2258,-3.2256,-3.2253,-3.2484,-3.2495,-3.2507,-3.2629,0,0,-3.2542,-3.2548,0,0,0,0,0,0,0,0,-3.1775,-3.18,-3.2025,-3.2033,-3.2041,-3.2203,-3.2159,-3.2353,-3.2261,-3.2178,-3.2255,-3.2252,-3.2396,-3.2415,-3.2463,-3.264,-3.265,-3.2544,-3.2551,-3.2556,-3.2559,0,0,0,0,0,0,0,-3.1762,-3.179,-3.207,-3.2029,-3.2038,-3.2052,-3.2076,-3.2196,-3.2299,-3.2185,-3.2189,-3.2215,-3.24,-3.2452,-3.2469,-3.2654,-3.2543,-3.2554,-3.2561,-3.2565,-3.2945,-3.2948,0,0,0,0,0,0,-3.1738,-3.1779,-3.2063,-3.2077,-3.1899,-3.2061,-3.2088,-3.2153,-3.2298,-3.2317,-3.2217,-3.2217,-3.2433,-3.2455,-3.2477,-3.2631,-3.2556,-3.2567,-3.2573,-3.2942,-3.2946,-3.2949,0,0,0,0,0,0,-3.1729,-3.1763,-3.2054,-3.1929,-3.1967,-3.207,-3.2143,-3.2159,-3.2211,-3.2322,-3.234,-3.2251,-3.2432,-3.2461,-3.2591,-3.264,-3.2572,-3.2582,-3.2939,-3.2943,-3.2948,-3.2938,0,0,0,0,0,0,-3.1718,-3.1759,-3.1806,-3.193,-3.1974,-3.2162,-3.2146,-3.2165,-3.223,-3.2232,-3.2358,-3.2376,-3.2432,-3.2574,-3.2603,-3.2655,-3.2592,-3.2935,-3.2941,-3.2946,-3.2935,-3.2942,-3.2948,0,0,0,0,0,-3.1704,-3.1794,-3.1808,-3.1842,-3.2033,-3.2165,-3.219,-3.2252,-3.2234,-3.2282,-3.2354,-3.2372,-3.263,-3.2587,-3.262,-3.2676,-3.2932,-3.2939,-3.2946,-3.2932,-3.2941,-3.2948,0,0,0,0,0,0,-3.1673,-3.1811,-3.1828,-3.196,-3.2051,-3.2173,-3.2235,-3.2259,-3.2356,-3.2354,-3.2427,-3.2455,-3.2581,-3.2642,-3.2591,-3.2803,-3.278,-3.2794,-3.2758,-3.2768,-3.2774,-3.2757,-3.2601,0,0,0,0,0,-3.1682,-3.1776,-3.1892,-3.1998,-3.2043,-3.2131,-3.2191,-3.223,-3.2327,-3.2366,-3.2447,-3.2541,-3.2644,-3.2709,-3.281,-3.2945,-3.2974,-3.3,-3.3007,-3.3012,-3.3023,-3.31,-3.3113,-3.2972,-3.2972,-3.2972,0,0,-3.1701,-3.1788,-3.1843,-3.1994,-3.2069,-3.2166,-3.2163,-3.2266,-3.2339,-3.2382,-3.251,-3.2573,-3.2683,-3.2817,-3.288,-3.2871,-3.3068,-3.3021,-3.3024,-3.3032,-3.3109,-3.3122,-3.3134,-3.2977,-3.2976,-3.2975,0,0,-3.1784,-3.1859,-3.1956,-3.2031,-3.2144,-3.2203,-3.2226,-3.2346,-3.239,-3.2519,-3.2554,-3.2643,-3.2818,-3.2895,-3.2957,-3.3073,-3.3094,-3.3104,-3.3139,-3.3214,-3.3225,-3.3235,-3.3277,-3.3291,-3.3115,-3.3115,-3.3115,0,-3.1793,-3.194,-3.2004,-3.2105,-3.2171,-3.2215,-3.2315,-3.2385,-3.2525,-3.257,-3.2559,-3.278,-3.2857,-3.301,-3.3039,-3.3088,-3.3118,-3.3089,-3.3218,-3.3229,-3.3239,-3.328,-3.3295,-3.3115,-3.3115,-3.3115,-3.3115,0,-3.1946,-3.2048,-3.2113,-3.2246,-3.232,-3.242,-3.2501,-3.2569,-3.2603,-3.2663,-3.2796,-3.289,-3.3011,-3.3051,-3.3085,-3.321,-3.3201,-3.3203,-3.3181,-3.3252,-3.3292,-3.3308,-3.3116,-3.3116,-3.3116,-3.3116,0,0,-3.2014,-3.2183,-3.2206,-3.2268,-3.2397,-3.2477,-3.2581,-3.2698,-3.2755,-3.2852,-3.2941,-3.3089,-3.3092,-3.3163,-3.3207,-3.3272,-3.3359,-3.3267,-3.327,-3.328,-3.3503,-3.35,-3.3517,-3.3374,-3.3378,-3.338,-3.3494,0,-3.2113,-3.2297,-3.2359,-3.2512,-3.2607,-3.2652,-3.2742,-3.2832,-3.2892,-3.2983,-3.305,-3.3154,-3.315,-3.3193,-3.326,-3.3334,-3.3404,-3.3327,-3.3459,-3.3463,-3.3429,-3.3537,-3.3534,-3.3637,-3.351,-3.3512,-3.3514,0,-3.2253,-3.235,-3.2513,-3.2631,-3.2674,-3.2753,-3.2867,-3.2953,-3.3057,-3.3097,-3.3177,-3.3216,-3.3328,-3.3301,-3.3456,-3.3402,-3.3461,-3.3505,-3.3511,-3.3525,-3.3492,-3.3554,-3.3671,-3.3686,-3.3539,-3.3537,-3.3535,0,-3.2286,-3.2459,-3.2578,-3.263,-3.2771,-3.2827,-3.2888,-3.299,-3.3057,-3.3158,-3.3202,-3.3315,-3.3376,-3.3463,-3.3532,-3.3506,-3.3682,-3.3661,-3.3719,-3.3717,-3.3753,-3.3749,-3.388,-3.3792,-3.3791,-3.3791,-3.3791,0,-3.239,-3.2487,-3.2595,-3.2669,-3.2781,-3.2852,-3.2961,-3.3026,-3.3116,-3.3204,-3.325,-3.3332,-3.342,-3.3514,-3.357,-3.369,-3.3718,-3.3754,-3.3767,-3.3749,-3.3745,-3.3788,-3.3782,-3.3795,-3.3794,-3.3793,-3.3793,0,-3.2445,-3.2521,-3.2655,-3.2778,-3.2811,-3.2888,-3.2995,-3.3069,-3.3132,-3.3243,-3.3273,-3.3373,-3.3486,-3.3565,-3.3711,-3.3748,-3.3879,-3.3892,-3.3843,-3.385,-3.3904,-3.3897,-3.4066,-3.4092,-3.3986,-3.3987,-3.3988,0,-3.2505,-3.2581,-3.2713,-3.2775,-3.2836,-3.2936,-3.3005,-3.3079,-3.315,-3.3275,-3.3334,-3.3451,-3.3548,-3.3728,-3.3814,-3.3927,-3.3942,-3.3994,-3.3959,-3.3939,-3.3943,-3.3937,-3.3946,-3.3998,-3.3999,-3.4,-3.4,0,-3.2605,-3.2639,-3.2736,-3.2847,-3.2928,-3.302,-3.3111,-3.316,-3.3251,-3.3328,-3.3444,-3.352,-3.3669,-3.3785,-3.3906,-3.3972,-3.4002,-3.4011,-3.403,-3.4012,-3.3981,-3.3998,-3.3857,-3.4006,-3.4005,-3.4005,-3.4005,-3.4004,-3.2665,-3.2735,-3.2838,-3.2946,-3.3023,-3.3108,-3.3184,-3.3257,-3.3355,-3.3481,-3.352,-3.3641,-3.3746,-3.3911,-3.3979,-3.4076,-3.4072,-3.41,-3.4107,-3.4113,-3.4113,-3.3966,-3.4099,-3.4099,-3.4099,-3.4099,-3.4099,0,-3.2766,-3.2835,-3.2933,-3.306,-3.3145,-3.3166,-3.327,-3.3339,-3.3445,-3.354,-3.3634,-3.3769,-3.3882,-3.3978,-3.4096,-3.4155,-3.4172,-3.4183,-3.4179,-3.4194,-3.4109,-3.4081,-3.4168,-3.4168,-3.4168,-3.4168,-3.4168,-3.4168,-3.2829,-3.2949,-3.2996,-3.3156,-3.3225,-3.3343,-3.34,-3.348,-3.3556,-3.3704,-3.3798,-3.3859,-3.3955,-3.4081,-3.4186,-3.4212,-3.4253,-3.4261,-3.4289,-3.4208,-3.42,-3.4192,-3.4166,-3.4269,-3.4269,-3.4366,-3.4367,-3.4368]},{"header":{"parameterUnit":"m.s-1","parameterCategory":1,"la1":30.2991,"la2":30.254,"lo1":-89.0895,"lo2":-89.0444,"dy":0.0017,"dx":0.0017,"nx":28,"ny":28,"refTime":"2025-04-25T03:00:00:Z","depth":0,"parameterNumber":3,"parameterNumberName":"V-component_of_WINDS"},"data":[0,0,0,0,0,0,0,0,0,0,0,0,0,0,0,0,0,0,0,0,0,0,0,0,0,0,0,0,0,0,0,0,0,0,0,0,0,0,0,0,0,0,0,0,0,0,0,0,0,0,0,0,0,0,0,0,0,0,3.9589,3.9591,0,3.9738,3.9739,3.9741,3.9777,3.9776,3.9775,3.9774,3.992,3.9925,3.9929,0,0,0,0,0,0,0,0,0,0,0,0,0,3.933,3.9335,3.9589,3.9591,3.9593,3.9737,3.9739,3.9741,3.9777,3.9776,3.9775,3.9774,3.9918,3.9924,3.993,0,0,0,0,0,0,0,0,0,0,0,0,0,3.9457,3.9337,3.9588,3.9628,3.9633,3.9737,3.9739,3.9742,3.9777,3.9776,3.9775,3.9773,3.9917,3.9924,3.9931,4.0004,0,0,3.9953,3.9956,0,0,0,0,0,0,0,0,3.945,3.9466,3.962,3.9625,3.9631,3.9737,3.9702,3.9829,3.9778,3.9722,3.9774,3.9772,3.986,3.9872,3.9903,4.0011,4.0017,3.9953,3.9958,3.9961,3.9963,0,0,0,0,0,0,0,3.9441,3.946,3.9647,3.9622,3.9629,3.9637,3.9653,3.9726,3.9797,3.9727,3.973,3.9748,3.9863,3.9896,3.9906,4.0019,3.9953,3.9959,3.9964,3.9967,4.0195,4.0197,0,0,0,0,0,0,3.9426,3.9453,3.9643,3.9652,3.9535,3.9642,3.9661,3.9705,3.9797,3.9809,3.9749,3.9749,3.9884,3.9898,3.9912,4.0004,3.9961,3.9967,3.9971,4.0193,4.0195,4.0197,0,0,0,0,0,0,3.9421,3.9443,3.9637,3.9553,3.9579,3.9648,3.9697,3.9708,3.9741,3.9813,3.9825,3.977,3.9883,3.9901,3.9981,4.0009,3.9971,3.9977,4.0191,4.0194,4.0196,4.0188,0,0,0,0,0,0,3.9413,3.9441,3.947,3.9554,3.9583,3.9705,3.9699,3.9712,3.9754,3.9756,3.9836,3.9848,3.9884,3.997,3.9988,4.0018,3.9983,4.0189,4.0192,4.0196,4.0186,4.019,4.0194,0,0,0,0,0,3.9404,3.946,3.9472,3.9494,3.9622,3.9707,3.9724,3.9766,3.9757,3.9786,3.9832,3.9845,4.0003,3.9978,3.9999,4.0031,4.0187,4.0191,4.0195,4.0185,4.019,4.0194,0,0,0,0,0,0,3.9376,3.9472,3.9485,3.9571,3.9631,3.9713,3.9752,3.9769,3.9831,3.983,3.9877,3.9895,3.9972,4.001,3.998,4.0107,4.0095,4.0103,4.008,4.0085,4.0089,4.0078,3.9989,0,0,0,0,0,3.938,3.9443,3.9523,3.9591,3.9621,3.9681,3.972,3.9747,3.981,3.9835,3.9887,3.9945,4.0009,4.0049,4.0111,4.0192,4.021,4.0225,4.0228,4.0231,4.0237,4.0283,4.0291,4.021,4.021,4.021,0,0,3.9389,3.9449,3.9486,3.9587,3.9637,3.97,3.9702,3.9768,3.9815,3.9844,3.9924,3.9964,4.0032,4.0113,4.0151,4.0147,4.0264,4.0236,4.0238,4.0243,4.0288,4.0296,4.0303,4.0213,4.0213,4.0212,0,0,3.9437,3.9489,3.9552,3.9603,3.9678,3.9718,3.9733,3.9813,3.9842,3.9923,3.9947,4.0001,4.0109,4.0158,4.0196,4.0264,4.0278,4.0282,4.0301,4.0346,4.0352,4.0358,4.0382,4.039,4.0289,4.0289,4.0289,0,3.9438,3.9535,3.9582,3.9648,3.9691,3.9724,3.9787,3.9833,3.9924,3.9952,3.9947,4.0084,4.0132,4.0225,4.0242,4.0272,4.029,4.0273,4.0348,4.0354,4.036,4.0384,4.0393,4.0289,4.0289,4.0289,4.0289,0,3.9532,3.9599,3.9641,3.9731,3.9779,3.9843,3.9898,3.9941,3.9964,4.0004,4.0086,4.0146,4.0221,4.0245,4.0267,4.0341,4.0336,4.0339,4.0327,4.0367,4.039,4.0399,4.0289,4.0289,4.0289,4.0289,0,0,3.9566,3.9683,3.9697,3.9739,3.9825,3.9877,3.9942,4.0018,4.0053,4.0115,4.017,4.0262,4.0265,4.0309,4.0337,4.0376,4.0426,4.0374,4.0376,4.0381,4.0511,4.0508,4.0518,4.0436,4.0438,4.0439,4.0505,0,3.9625,3.9745,3.9789,3.9887,3.9949,3.9981,4.0038,4.0096,4.0135,4.0193,4.0235,4.0299,4.0299,4.0326,4.0366,4.0411,4.0452,4.0407,4.0486,4.0489,4.0468,4.053,4.0527,4.0586,4.0514,4.0516,4.0517,0,3.9709,3.9775,3.9879,3.9959,3.9987,4.0037,4.0111,4.0166,4.0232,4.0258,4.0308,4.0334,4.0402,4.0387,4.048,4.0449,4.0484,4.0511,4.0514,4.0523,4.0505,4.0539,4.0606,4.0614,4.0531,4.053,4.0529,0,3.9724,3.9838,3.9915,3.995,4.0045,4.0079,4.012,4.0186,4.0229,4.0292,4.032,4.0389,4.0427,4.048,4.0523,4.0509,4.0613,4.0602,4.0635,4.0634,4.0655,4.0653,4.0728,4.0678,4.0678,4.0678,4.0678,0,3.9785,3.9847,3.9923,3.9971,4.0042,4.0091,4.0159,4.0202,4.026,4.0315,4.0346,4.0397,4.0452,4.051,4.0544,4.0617,4.0633,4.0655,4.0663,4.0652,4.0649,4.0675,4.0672,4.068,4.068,4.0679,4.0679,0,3.9812,3.9866,3.9953,4.0036,4.0059,4.0107,4.0178,4.0224,4.0266,4.0335,4.0354,4.0418,4.0488,4.0537,4.0626,4.0649,4.0727,4.0735,4.0705,4.0709,4.074,4.0736,4.0833,4.0848,4.0789,4.0789,4.079,0,3.9847,3.9897,3.9986,4.0027,4.0068,4.0133,4.0177,4.0228,4.0273,4.0353,4.0389,4.0462,4.0522,4.0631,4.0684,4.0752,4.0762,4.0792,4.0772,4.076,4.0762,4.0759,4.0764,4.0794,4.0794,4.0795,4.0795,0,3.9904,3.9929,3.9993,4.0067,4.012,4.018,4.024,4.0271,4.0332,4.038,4.0453,4.05,4.0592,4.0663,4.0736,4.0776,4.0796,4.0801,4.0812,4.0801,4.0782,4.0793,4.0712,4.0798,4.0798,4.0798,4.0797,4.0797,3.9937,3.9982,4.0053,4.0124,4.0175,4.0231,4.0279,4.0327,4.0389,4.047,4.0495,4.057,4.0636,4.0737,4.0778,4.0837,4.0835,4.0851,4.0855,4.0858,4.0858,4.0773,4.085,4.085,4.085,4.085,4.085,0,3.9995,4.0043,4.0107,4.0192,4.0247,4.0263,4.033,4.0375,4.0442,4.0502,4.0562,4.0645,4.0714,4.0774,4.0845,4.088,4.0891,4.0897,4.0895,4.0904,4.0856,4.0839,4.0888,4.0888,4.0888,4.0887,4.0887,4.0887,4.0032,4.011,4.0143,4.0246,4.0293,4.0369,4.0406,4.0457,4.0506,4.0599,4.0657,4.0696,4.0756,4.0832,4.0896,4.0912,4.0936,4.094,4.0958,4.0911,4.0907,4.0903,4.0887,4.0945,4.0945,4.1001,4.1002,4.1002]}]]